Location: Lugrin
(46.4033°N, 6.6674°E)
Time: 11:43:14
(UTC+00:00)

NOSS 3-2 (A) - Pass Details

Date: 18 September 2020
Orbit: 795 x 1413 km, 63.4° (Epoch: 02 October)

Event Time Altitude Azimuth Distance (km) Brightness Sun altitude
Rises 20:00:23 0° 319° (NW) 3,977 7.9 -24.1°
Reaches altitude 10° 20:02:57 10° 317° (NW) 3,097 7.1 -24.5°
Maximum altitude 20:10:27 68° 237° (WSW) 1,378 4.2 -25.6°
Enters shadow 20:13:56 38° 167° (SSE) 1,933 4.6 -26.1°
